Printer-friendly version

IAU Minor Planet Center

Minor Planet Center

MPEC 2006-Q10 : 2006 QS

The following Minor Planet Electronic Circular may be linked-to from your own Web pages, but must not otherwise be redistributed electronically.


Read MPEC 2006-Q09 Read MPEC 2006-Q11


M.P.E.C. 2006-Q10                                Issued 2006 Aug. 19, 16:13 UT

     The Minor Planet Electronic Circulars contain information on unusual
         minor planets and routine data on comets.  They are published
   on behalf of Commission 20 of the International Astronomical Union by the
          Minor Planet Center, Smithsonian Astrophysical Observatory,
                          Cambridge, MA 02138, U.S.A.

                  Supported in part by the Brinson Foundation
                  Supported in part by the TABASGO Foundation
             Prepared using the Tamkin Foundation Computer Network

                              MPC@CFA.HARVARD.EDU
          URL http://cfa-www.harvard.edu/iau/mpc.html  ISSN 1523-6714

                                    2006 QS

Observations:
     K06Q00S* C2006 08 18.29907 22 03 55.08 -04 24 09.9          17.7   EQ010704
     K06Q00S  C2006 08 18.30936 22 03 55.98 -04 24 17.4          18.0   EQ010704
     K06Q00S  C2006 08 18.32008 22 03 56.87 -04 24 26.3          18.0   EQ010704
     K06Q00S  C2006 08 18.33045 22 03 57.79 -04 24 34.6          17.7   EQ010704
     K06Q00S  C2006 08 18.34086 22 03 58.71 -04 24 43.6          17.9   EQ010704
     K06Q00S  C2006 08 18.95515 22 05 00.38 -04 33 10.2                 EQ010J95
     K06Q00S  C2006 08 18.95675 22 05 00.52 -04 33 11.4                 EQ010J95
     K06Q00S  C2006 08 18.95835 22 05 00.66 -04 33 13.0          18.4 R EQ010J95
     K06Q00S  C2006 08 18.99291 22 05 03.51 -04 33 40.7          18.1 V EQ010A17
     K06Q00S  C2006 08 18.99346 22 05 03.73 -04 33 36.4          17.7 R EQ010620
     K06Q00S  C2006 08 18.99913 22 05 04.21 -04 33 40.9          17.3 R EQ010620
     K06Q00S  C2006 08 19.00369 22 05 04.50 -04 33 49.3          18.1 V EQ010A17
     K06Q00S  C2006 08 19.01274 22 05 05.28 -04 33 56.6          18.0 V EQ010A17
     K06Q00S  C2006 08 19.01559 22 05 05.66 -04 33 54.7          17.5 R EQ010620
     K06Q00S  C2006 08 19.02515 22 05 06.50 -04 34 02.5          17.4 R EQ010620
     K06Q00S  C2006 08 19.03053 22 05 06.98 -04 34 07.1          17.3 R EQ010620
     K06Q00S  C2006 08 19.06951 22 05 11.92 -04 34 06.0          17.8 R EQ010I77
     K06Q00S  C2006 08 19.07514 22 05 12.44 -04 34 09.9          17.7 R EQ010I77
     K06Q00S  C2006 08 19.08228 22 05 13.03 -04 34 15.5          17.5 R EQ010I77
     K06Q00S  C2006 08 19.09327 22 05 14.50 -04 34 58.5          17.2 V EQ010H98
     K06Q00S  C2006 08 19.09667 22 05 14.88 -04 35 01.2          17.2 V EQ010H98
     K06Q00S  C2006 08 19.10196 22 05 15.40 -04 35 05.6          17.0 V EQ010H98
     K06Q00S FC2006 08 19.10723 22 05 13.56 -04 35 12.3          18   R EQ010461
     K06Q00S FC2006 08 19.10966 22 05 13.79 -04 35 14.5                 EQ010461
     K06Q00S  C2006 08 19.24695 22 05 29.28 -04 37 00.8          17.6 R EQ010699
     K06Q00S  C2006 08 19.26250 22 05 29.95 -04 37 13.2          17.6 R EQ010850
     K06Q00S  C2006 08 19.26514 22 05 30.87 -04 37 15.3                 EQ010699
     K06Q00S  C2006 08 19.27395 22 05 30.87 -04 37 22.7          17.9 R EQ010850
     K06Q00S  C2006 08 19.28339 22 05 32.50 -04 37 30.5                 EQ010699
     K06Q00S  C2006 08 19.30330 22 05 33.41 -04 37 47.0          17.5 R EQ010850
     K06Q00S  C2006 08 19.31665 22 05 34.51 -04 37 57.9          17.6 R EQ010850
     K06Q00S  C2006 08 19.32105 22 05 35.67 -04 38 01.2                 EQ010699
     K06Q00S  C2006 08 19.32809 22 05 35.53 -04 38 07.2          18.4 R EQ010850
     K06Q00S  C2006 08 19.33953 22 05 36.46 -04 38 17.5          17.6 R EQ010850
     K06Q00S  C2006 08 19.51209 22 05 55.21 -04 39 59.6          18.2 R EQ010423
     K06Q00S  C2006 08 19.54410 22 05 57.98 -04 40 26.0          18.2 R EQ010423
     K06Q00S  C2006 08 19.58060 22 06 01.10 -04 40 55.7          18.1 R EQ010423
     K06Q00S  C2006 08 19.60450 22 06 03.11 -04 41 15.2          18.1 R EQ010423

Observer details:
423 North Ryde.  Observer S. G. McAndrew.  0.20-m f/4 hyperbolic astrograph
    + CCD.
461 Szeged University, Piszkesteto Stn. (Konkoly).  Observers K. Sarneczky,
    Z. Kuli.  Measurer K. Sarneczky.  0.60-m Schmidt + CCD.
620 Observatorio Astronomico de Mallorca.  Observers D. Bektesevic, A. Cikota,
    S. Cikota, A. Bonaca, J. O. Ku, E. O. Jeong, R. Stoss.  0.30-m f/9
    Schmidt-Cassegrain + CCD.
699 Lowell Observatory-LONEOS.  Observer M. E. Van Ness.  0.59-m LONEOS
    Schmidt + CCD.
704 Lincoln Laboratory ETS, New Mexico.  Observers M. Bezpalko, L. Manguso,
    D. Torres, R. Kracke, H. Love, G. Spitz, J. Kistler.  Measurers J. Stuart,
    J. Kommers.  1.0-m f/2.15 reflector + CCD.
850 Cordell-Lorenz Observatory, Sewanee.  Observer D. T. Durig.  0.30-m f/9.7
    Schmidt-Cassegrain + 1Kx1K CCD.
A17 Guidestar Observatory, Weinheim.  Observers M. Emmerich, S. Melchert.
    0.36-m f/6 Schmidt-Cassegrain + CCD.
H98 Dark Rosanne Obs., Middlefield.  Observer R. Krajewski.  0.20-m f/4
    Schmidt-Newtonian + CCD.
I77 CEAMIG-REA Observatory, Belo Horizonte.  Observers C. Jacques, E. Pimentel.
    Measurer C. Jacques.  0.30-m f/3.0 Schmidt-Cassegrain + CCD.
J95 Great Shefford.  Observer P. Birtwhistle.  0.40-m f/6.0 Schmidt-Cassegrain
    + CCD.

Orbital elements:
2006 QS                                                  Earth MOID = 0.2329 AU
Epoch 2006 Sept. 22.0 TT = JDT 2454000.5                MPC
M  13.91695              (2000.0)            P               Q
n   0.24409107     Peri.  142.55618     +0.60334703     +0.79719737
a   2.5357209      Node   164.51705     -0.74952272     +0.57593714
e   0.5101325      Incl.    4.55125     -0.27237485     +0.18103248
P   4.04           H   19.8           G   0.15           U   8
Residuals in seconds of arc
060818 704  0.5+  0.3-    060819 620  0.0   0.1+    060819 699  0.2-  0.8+
060818 704  0.4+  0.5+    060819 620  0.1+  0.1+    060819 850  0.7+  0.7+
060818 704  0.3-  0.3+    060819 620  0.2+  0.1-    060819 699  0.6+  0.5+
060818 704  0.1-  0.4+    060819 I77  0.2-  0.0     060819 850  0.8+  0.2+
060818 704  0.0   0.1-    060819 I77  0.4+  0.7+    060819 850  0.1-  0.2+
060818 J95  0.1-  0.2-    060819 I77  0.1+  1.0+    060819 699  0.5-  0.6+
060818 J95  0.1-  0.1-    060819 H98  1.3-  0.2-    060819 850  0.3+  0.1+
060818 J95  0.2-  0.4-    060819 H98  0.2-  0.1-    060819 850  0.8-  0.9-
060818 A17  0.1-  0.5-    060819 H98  0.4+  0.1-    060819 423  0.1-  0.2-
060818 620  0.0   0.4+    060819 461  0.2+  0.3-    060819 423  0.0   0.3-
060818 620  0.2-  0.5+    060819 461  0.3+  0.6-    060819 423  0.0   0.1-
060819 A17  0.4+  0.3-    060819 699  0.3-  0.3+    060819 423  0.4-  0.1-
060819 A17  0.0   0.3-    060819 850  1.7+  0.9+

Ephemeris:
2006 QS                  a,e,i = 2.54, 0.51, 5                   q = 1.2422
Date    TT    R. A. (2000) Decl.     Delta      r     Elong.  Phase     V
2006 08 13    21 54.65   -03 14.0    0.248    1.256   166.9    10.5    17.9
2006 08 23    22 11.37   -05 27.8    0.267    1.277   173.8     4.9    17.9
2006 09 02    22 25.18   -07 35.8    0.298    1.306   175.4     3.5    18.1
2006 09 12    22 36.97   -09 15.4    0.342    1.343   168.3     8.7    18.7
2006 09 22    22 47.63   -10 16.8    0.399    1.387   160.5    14.0    19.3
2006 10 02    22 58.06   -10 38.7    0.470    1.435   152.8    18.6    19.9
2006 10 12    23 08.86   -10 25.6    0.555    1.489   145.5    22.3    20.5
2006 10 22    23 20.22   -09 44.6    0.653    1.545   138.4    25.3    21.0
2006 11 01    23 32.32   -08 41.9    0.763    1.605   131.7    27.5    21.5
2006 11 11    23 45.11   -07 23.3    0.886    1.666   125.1    29.1    21.9

Kyle E. Smalley              (C) Copyright 2006 MPC           M.P.E.C. 2006-Q10

Read MPEC 2006-Q09 Read MPEC 2006-Q11


Our Web policy. Index to the CBAT/MPC/ICQ pages.


Valid HTML 4.01!